This is the latest recevied weather packets stored in our database for station/object KC5AV. If no packets are shown the sender has not sent any weather packets the latest 1 day(s).
| Time | Temp. | Humidity | Pressure | Rain* | Wind** | Luminosity | Snow |
|---|---|---|---|---|---|---|---|
| 1778025492 | 28.33° C | 70% | 1006.6 hPa | 0 mm | 0.89 m/s, 177° | 58 W/m² | - |
| 1778025190 | 28.33° C | 70% | 1006.8 hPa | 0 mm | 0.89 m/s, 298° | 75 W/m² | - |
| 1778024887 | 28.89° C | 69% | 1006.8 hPa | 0 mm | 0 m/s | 85 W/m² | - |
| 1778024584 | 28.33° C | 70% | 1006.5 hPa | 0 mm | 0 m/s | 102 W/m² | - |
| 1778024281 | 28.89° C | 69% | 1006.5 hPa | 0 mm | 0.45 m/s, 332° | 98 W/m² | - |
| 1778023979 | 28.89° C | 69% | 1006.4 hPa | 0 mm | 0.45 m/s, 240° | 117 W/m² | - |
| 1778023676 | 28.89° C | 68% | 1006.4 hPa | 0 mm | 0 m/s | 69 W/m² | - |
| 1778023373 | 29.44° C | 68% | 1006.6 hPa | 0 mm | 0 m/s | 109 W/m² | - |
| 1778023069 | 29.44° C | 68% | 1006.2 hPa | 0 mm | 0.89 m/s, 116° | 137 W/m² | - |
| 1778022769 | 29.44° C | 67% | 1006.3 hPa | 0 mm | 0 m/s | 151 W/m² | - |
| 1778022466 | 29.44° C | 67% | 1006.3 hPa | 0 mm | 1.34 m/s, 165° | 126 W/m² | - |
| 1778022163 | 29.44° C | 67% | 1006.3 hPa | 0 mm | 2.24 m/s, 142° | 164 W/m² | - |
| 1778021859 | 29.44° C | 67% | 1006.3 hPa | 0 mm | 0.45 m/s, 256° | 151 W/m² | - |
| 1778021557 | 28.89° C | 68% | 1006.1 hPa | 0 mm | 0.89 m/s, 186° | 175 W/m² | - |
| 1778021252 | 28.89° C | 67% | 1005.9 hPa | 0 mm | 0.89 m/s, 223° | 136 W/m² | - |
| 1778020950 | 29.44° C | 66% | 1006.3 hPa | 0 mm | 0.89 m/s, 152° | 95 W/m² | - |
| 1778020647 | 29.44° C | 66% | 1006.3 hPa | 0 mm | 0.45 m/s, 260° | 123 W/m² | - |
| 1778020343 | 29.44° C | 65% | 1006.1 hPa | 0 mm | 0.89 m/s, 309° | 182 W/m² | - |
| 1778020039 | 29.44° C | 65% | 1006 hPa | 0 mm | 0 m/s | 161 W/m² | - |
| 1778019735 | 30° C | 65% | 1006.2 hPa | 0 mm | 0 m/s | 294 W/m² | - |
| 1778019433 | 29.44° C | 66% | 1006.3 hPa | 0 mm | 0.89 m/s, 189° | 156 W/m² | - |
| 1778019129 | 29.44° C | 67% | 1006.1 hPa | 0 mm | 0 m/s | 289 W/m² | - |
| 1778018826 | 29.44° C | 66% | 1006.2 hPa | 0 mm | 0.89 m/s, 196° | 167 W/m² | - |
| 1778018524 | 29.44° C | 66% | 1006.3 hPa | 0 mm | 0.45 m/s, 234° | 207 W/m² | - |
| 1778018221 | 29.44° C | 65% | 1006.4 hPa | 0 mm | 0 m/s | 157 W/m² | - |
* Rain latest hour (hover to see other rain measurements)
** Current wind speed in m/s (hover to see current wind gust speed)